Alice, TX

8:13 AM CST on February 24, 2018 (GMT -0600)
Alice International

Weather History for KALI - April, 2014

Change the Weather History Date:

Sunday, April 13, 2014

  Actual Average Record
Temperature  
Mean Temperature 80 °F -  
Max Temperature 91 °F 80 °F 93 °F (2007)
Min Temperature 70 °F 60 °F 44 °F (2004)
Cooling Degree Days 15    
Growing Degree Days 30 (Base 50)    
Moisture  
Dew Point 69 °F    
Average Humidity 78    
Maximum Humidity 91    
Minimum Humidity 48    
Precipitation  
Precipitation 0.00 in - - ()
Sea Level Pressure  
Sea Level Pressure 29.74 in    
Wind  
Wind Speed 13 mph (SSE)    
Max Wind Speed 18 mph    
Max Gust Speed 29 mph    
Visibility 10 miles    
Events      
Averages and records for this station are not official NWS values.
T = Trace of Precipitation, MM = Missing Value Source: NWS Daily Summary

Daily Weather History Graph

Daily Weather History Graph

Search for Another Location

Airport or City:

Trip Planner

Search our weather history database for the weather conditions in past years. The results will help you decide how hot, cold, wet, or windy it might be!

Date:

Astronomy

Apr. 13, 2014 Rise Set
Actual Time 7:09 AM CDT 7:56 PM CDT
Civil Twilight 6:45 AM CDT 8:20 PM CDT
Nautical Twilight 6:17 AM CDT 8:48 PM CDT
Astronomical Twilight 5:48 AM CDT 9:16 PM CDT
Moon 6:41 PM CDT (4/13) 6:00 AM CDT (4/13)
Length of Visible Light 13h 34m
Length of Day
12h 46m
Waxing Gibbous, 97% of the Moon is Illuminated
Apr 13
Waxing Gibbous
Apr 15
Full
Apr 22
Last Quarter
Apr 29
New
May 6
First Quarter

Hourly Weather History & Observations

Time (CDT) Temp. Heat Index Dew Point Humidity Pressure Visibility Wind Dir Wind Speed Gust Speed Precip Events Conditions
12:53 AM 70.0 °F - 66.9 °F 90% 29.84 in 10.0 mi SE 11.5 mph - N/A   Scattered Clouds
1:04 AM 70.0 °F - 66.9 °F 90% 29.85 in 10.0 mi SE 11.5 mph - N/A   Mostly Cloudy
1:53 AM 71.1 °F - 66.9 °F 87% 29.83 in 10.0 mi SSE 11.5 mph - N/A   Overcast
2:53 AM 71.1 °F - 68.0 °F 90% 29.80 in 10.0 mi SSE 11.5 mph - N/A   Overcast
3:53 AM 73.0 °F - 68.0 °F 84% 29.78 in 10.0 mi SSE 13.8 mph 20.7 mph N/A   Overcast
4:06 AM 73.0 °F - 68.0 °F 84% 29.79 in 10.0 mi South 12.7 mph - N/A   Overcast
4:32 AM 73.0 °F - 68.0 °F 84% 29.78 in 10.0 mi SSE 9.2 mph - N/A   Overcast
4:53 AM 73.0 °F - 68.0 °F 84% 29.77 in 10.0 mi SSE 11.5 mph - N/A   Overcast
5:39 AM 72.0 °F - 68.0 °F 87% 29.77 in 10.0 mi SSE 11.5 mph - N/A   Overcast
5:53 AM 72.0 °F - 68.0 °F 87% 29.76 in 10.0 mi SSE 9.2 mph - N/A   Overcast
6:30 AM 72.0 °F - 69.1 °F 91% 29.76 in 9.0 mi SSE 9.2 mph - N/A   Overcast
6:53 AM 72.0 °F - 69.1 °F 91% 29.75 in 9.0 mi SSE 10.4 mph - N/A   Overcast
7:53 AM 73.0 °F - 69.1 °F 87% 29.78 in 7.0 mi SSE 8.1 mph - N/A   Overcast
8:53 AM 75.0 °F - 69.1 °F 82% 29.78 in 8.0 mi SE 13.8 mph 23.0 mph N/A   Mostly Cloudy
9:17 AM 77.0 °F - 69.1 °F 76% 29.78 in 10.0 mi SSE 15.0 mph 25.3 mph N/A   Mostly Cloudy
9:53 AM 78.1 °F - 69.1 °F 74% 29.78 in 10.0 mi SSE 18.4 mph 25.3 mph N/A   Overcast
10:45 AM 81.0 °F 84.1 °F 69.1 °F 67% 29.79 in 10.0 mi South 10.4 mph 21.9 mph N/A   Overcast
10:53 AM 81.0 °F 83.8 °F 68.0 °F 65% 29.78 in 10.0 mi South 12.7 mph - N/A   Overcast
11:53 AM 84.0 °F 87.0 °F 68.0 °F 58% 29.76 in 10.0 mi South 16.1 mph 26.5 mph N/A   Mostly Cloudy
12:53 PM 84.9 °F 87.6 °F 66.9 °F 55% 29.74 in 10.0 mi South 18.4 mph 28.8 mph N/A   Overcast
1:53 PM 88.0 °F 91.4 °F 68.0 °F 51% 29.71 in 10.0 mi South 15.0 mph 21.9 mph N/A   Mostly Cloudy
2:53 PM 88.0 °F 90.7 °F 66.9 °F 49% 29.70 in 10.0 mi South 10.4 mph 20.7 mph N/A   Mostly Cloudy
3:53 PM 90.0 °F 93.6 °F 68.0 °F 48% 29.68 in 10.0 mi SSE 10.4 mph - N/A   Mostly Cloudy
4:53 PM 88.0 °F 92.9 °F 70.0 °F 55% 29.65 in 10.0 mi SSE 16.1 mph 25.3 mph N/A   Mostly Cloudy
5:53 PM 86.0 °F 91.5 °F 71.1 °F 61% 29.65 in 10.0 mi SE 17.3 mph 21.9 mph N/A   Clear
6:53 PM 82.4 °F 87.2 °F 71.6 °F 70% 29.65 in 10.0 mi SE 17.3 mph - N/A   Clear
7:53 PM 78.1 °F - 71.1 °F 79% 29.65 in 10.0 mi SE 17.3 mph 24.2 mph N/A   Clear
8:53 PM 75.9 °F - 71.1 °F 85% 29.66 in 10.0 mi SE 11.5 mph - N/A   Clear
9:41 PM 75.0 °F - 72.0 °F 90% 29.70 in 9.0 mi SSE 13.8 mph - N/A   Partly Cloudy
9:53 PM 75.0 °F - 72.0 °F 90% 29.69 in 9.0 mi SSE 15.0 mph - N/A   Scattered Clouds
10:51 PM 75.2 °F - 71.6 °F 89% 29.71 in 8.0 mi SSE 13.8 mph - N/A   Mostly Cloudy
10:52 PM 75.0 °F - 72.0 °F 90% 29.70 in 8.0 mi SSE 15.0 mph - N/A   Mostly Cloudy
11:51 PM 75.2 °F - 71.6 °F 89% 29.71 in 8.0 mi SSE 16.1 mph 23.0 mph N/A   Overcast
11:53 PM 75.0 °F - 71.1 °F 87% 29.70 in 8.0 mi SSE 13.8 mph 23.0 mph N/A   Overcast